Time,TemperatureF,DewpointF,PressureIn,WindDirection,WindDirectionDegrees,WindSpeedMPH,WindSpeedGustMPH,Humidity,HourlyPrecipIn,Conditions,Clouds,dailyrainin,SoftwareType,DateUTC
2013-03-07 00:00:00,56.1,52.3,29.80,East,99,1.0,4.0,87,0.02,RA,,0.00,WeatherDisplay:10.37,2013-03-06 23:00:00,
2013-03-07 00:15:00,56.2,52.4,29.80,NNE,15,2.0,6.0,87,0.02,RA,,0.00,WeatherDisplay:10.37,2013-03-06 23:15:00,
2013-03-07 00:20:00,56.0,52.2,29.79,NE,39,3.0,7.0,87,0.02,RA,,0.00,WeatherDisplay:10.37,2013-03-06 23:20:00,
2013-03-07 00:30:00,55.8,52.3,29.79,NE,40,2.0,5.0,88,0.02,RA,,0.00,WeatherDisplay:10.37,2013-03-06 23:30:00,
2013-03-07 00:40:00,55.7,52.2,29.79,NNE,21,2.0,7.0,88,0.02,CLR,,0.00,WeatherDisplay:10.37,2013-03-06 23:40:00,
2013-03-07 00:50:00,55.9,52.4,29.79,WNW,301,2.0,4.0,88,0.01,RA,,0.01,WeatherDisplay:10.37,2013-03-06 23:50:00,
2013-03-07 01:00:00,55.8,52.6,29.79,WNW,283,2.0,5.0,89,0.01,RA,,0.01,WeatherDisplay:10.37,2013-03-07 00:00:00,
2013-03-07 01:11:00,55.8,52.6,29.79,NW,325,2.0,4.0,89,0.01,RA,,0.01,WeatherDisplay:10.37,2013-03-07 00:11:00,
2013-03-07 01:21:00,55.9,52.7,29.79,WSW,248,2.0,9.0,89,0.01,CLR,,0.01,WeatherDisplay:10.37,2013-03-07 00:21:00,
2013-03-07 01:31:00,55.9,52.7,29.79,WSW,254,2.0,5.0,89,0.01,CLR,,0.01,WeatherDisplay:10.37,2013-03-07 00:31:00,
2013-03-07 01:40:00,55.8,52.6,29.79,WNW,293,1.0,8.0,89,0.01,CLR,,0.01,WeatherDisplay:10.37,2013-03-07 00:40:00,
2013-03-07 01:50:00,55.7,52.8,29.78,NNW,339,1.0,4.0,90,0.00,CLR,,0.01,WeatherDisplay:10.37,2013-03-07 00:50:00,
2013-03-07 02:00:00,55.5,52.6,29.78,East,93,1.0,7.0,90,0.00,CLR,,0.01,WeatherDisplay:10.37,2013-03-07 01:00:00,
2013-03-07 02:10:00,55.3,52.7,29.78,NNW,344,2.0,8.0,91,0.00,CLR,,0.01,WeatherDisplay:10.37,2013-03-07 01:10:00,
2013-03-07 02:20:00,55.3,52.7,29.78,NW,325,1.0,4.0,91,0.00,CLR,,0.01,WeatherDisplay:10.37,2013-03-07 01:20:00,
2013-03-07 02:30:00,55.2,52.9,29.78,SW,218,2.0,6.0,92,0.00,CLR,,0.01,WeatherDisplay:10.37,2013-03-07 01:30:00,
2013-03-07 02:40:00,55.1,52.8,29.77,West,269,1.0,4.0,92,0.00,CLR,,0.01,WeatherDisplay:10.37,2013-03-07 01:40:00,
2013-03-07 02:50:00,55.2,53.2,29.77,SW,234,2.0,5.0,93,0.00,CLR,,0.01,WeatherDisplay:10.37,2013-03-07 01:50:00,
2013-03-07 03:00:00,55.2,53.2,29.77,SSW,194,2.0,7.0,93,0.00,CLR,,0.01,WeatherDisplay:10.37,2013-03-07 02:00:00,
2013-03-07 03:10:00,55.3,53.3,29.76,SW,218,2.0,6.0,93,0.00,CLR,,0.01,WeatherDisplay:10.37,2013-03-07 02:10:00,
2013-03-07 03:20:00,55.3,53.3,29.76,SSW,204,2.0,4.0,93,0.00,CLR,,0.01,WeatherDisplay:10.37,2013-03-07 02:20:00,
2013-03-07 03:31:00,55.4,53.4,29.77,SSW,205,3.0,7.0,93,0.00,CLR,,0.01,WeatherDisplay:10.37,2013-03-07 02:31:00,
2013-03-07 03:40:00,55.4,53.4,29.77,SW,233,1.0,3.0,93,0.00,CLR,,0.01,WeatherDisplay:10.37,2013-03-07 02:40:00,
2013-03-07 03:50:00,55.4,53.4,29.77,SW,219,2.0,6.0,93,0.00,CLR,,0.01,WeatherDisplay:10.37,2013-03-07 02:50:00,
2013-03-07 04:00:00,55.4,53.7,29.76,SW,214,1.0,7.0,94,0.00,CLR,,0.01,WeatherDisplay:10.37,2013-03-07 03:00:00,
2013-03-07 04:10:00,55.4,53.7,29.76,SW,234,2.0,4.0,94,0.00,CLR,,0.01,WeatherDisplay:10.37,2013-03-07 03:10:00,
2013-03-07 04:20:00,55.4,53.7,29.76,SSW,192,3.0,8.0,94,0.00,CLR,,0.01,WeatherDisplay:10.37,2013-03-07 03:20:00,
2013-03-07 04:31:00,55.4,53.7,29.76,SSW,197,3.0,7.0,94,0.00,CLR,,0.01,WeatherDisplay:10.37,2013-03-07 03:31:00,
2013-03-07 04:40:00,55.3,53.6,29.76,SW,221,6.0,9.0,94,0.00,CLR,,0.01,WeatherDisplay:10.37,2013-03-07 03:40:00,
2013-03-07 04:50:00,55.3,53.9,29.76,SW,218,5.0,10.0,95,0.00,CLR,,0.01,WeatherDisplay:10.37,2013-03-07 03:50:00,
2013-03-07 05:00:00,55.2,53.8,29.76,SW,225,3.0,10.0,95,0.00,CLR,,0.01,WeatherDisplay:10.37,2013-03-07 04:00:00,
2013-03-07 05:10:00,55.2,53.8,29.76,SSW,206,5.0,9.0,95,0.00,CLR,,0.01,WeatherDisplay:10.37,2013-03-07 04:10:00,
2013-03-07 05:20:00,55.2,53.8,29.76,SW,228,5.0,7.0,95,0.00,CLR,,0.01,WeatherDisplay:10.37,2013-03-07 04:20:00,
2013-03-07 05:30:00,55.3,53.9,29.77,SW,220,5.0,7.0,95,0.00,CLR,,0.01,WeatherDisplay:10.37,2013-03-07 04:30:00,
2013-03-07 05:40:00,55.3,53.9,29.77,SW,222,3.0,7.0,95,0.00,CLR,,0.01,WeatherDisplay:10.37,2013-03-07 04:40:00,
2013-03-07 05:50:00,55.2,53.8,29.77,SW,231,3.0,6.0,95,0.00,CLR,,0.01,WeatherDisplay:10.37,2013-03-07 04:50:00,
2013-03-07 06:05:00,55.2,53.8,29.77,SSW,213,5.0,7.0,95,0.00,CLR,,0.01,WeatherDisplay:10.37,2013-03-07 05:05:00,
2013-03-07 06:10:00,55.3,53.9,29.77,SW,215,3.0,7.0,95,0.00,CLR,,0.01,WeatherDisplay:10.37,2013-03-07 05:10:00,
2013-03-07 06:15:00,55.2,53.8,29.77,SW,219,5.0,7.0,95,0.00,CLR,,0.01,WeatherDisplay:10.37,2013-03-07 05:15:00,
2013-03-07 06:20:00,55.3,53.9,29.77,SW,221,3.0,7.0,95,0.00,CLR,,0.01,WeatherDisplay:10.37,2013-03-07 05:20:00,
2013-03-07 06:30:00,55.3,53.9,29.77,SSW,210,5.0,7.0,95,0.00,CLR,,0.01,WeatherDisplay:10.37,2013-03-07 05:30:00,
2013-03-07 06:40:00,55.3,53.9,29.77,SSW,211,5.0,6.0,95,0.00,CLR,,0.01,WeatherDisplay:10.37,2013-03-07 05:40:00,
2013-03-07 06:50:00,55.3,53.9,29.77,SW,215,2.0,6.0,95,0.00,CLR,,0.01,WeatherDisplay:10.37,2013-03-07 05:50:00,
2013-03-07 07:00:00,55.3,53.9,29.77,SW,221,5.0,8.0,95,0.00,CLR,,0.01,WeatherDisplay:10.37,2013-03-07 06:00:00,
2013-03-07 07:11:00,55.3,53.9,29.77,SW,219,5.0,7.0,95,0.00,CLR,,0.01,WeatherDisplay:10.37,2013-03-07 06:11:00,
2013-03-07 07:21:00,55.3,53.9,29.77,SSW,208,3.0,7.0,95,0.00,CLR,,0.01,WeatherDisplay:10.37,2013-03-07 06:21:00,
2013-03-07 07:30:00,55.4,54.0,29.77,SW,219,5.0,7.0,95,0.00,CLR,,0.01,WeatherDisplay:10.37,2013-03-07 06:30:00,
2013-03-07 07:40:00,55.4,54.0,29.77,SSW,211,6.0,8.0,95,0.00,CLR,,0.01,WeatherDisplay:10.37,2013-03-07 06:40:00,
2013-03-07 07:50:00,55.5,54.1,29.78,SSW,212,5.0,7.0,95,0.00,CLR,,0.01,WeatherDisplay:10.37,2013-03-07 06:50:00,
2013-03-07 08:00:00,55.5,54.1,29.78,SSW,206,3.0,7.0,95,0.00,CLR,,0.01,WeatherDisplay:10.37,2013-03-07 07:00:00,
2013-03-07 08:10:00,55.6,54.2,29.78,SW,223,5.0,7.0,95,0.00,CLR,,0.01,WeatherDisplay:10.37,2013-03-07 07:10:00,
2013-03-07 08:20:00,55.8,54.4,29.79,SW,223,2.0,6.0,95,0.00,CLR,,0.01,WeatherDisplay:10.37,2013-03-07 07:20:00,
2013-03-07 08:31:00,55.9,54.2,29.79,SW,219,3.0,8.0,94,0.00,CLR,,0.01,WeatherDisplay:10.37,2013-03-07 07:31:00,
2013-03-07 08:40:00,56.0,54.3,29.79,SW,234,3.0,8.0,94,0.00,CLR,,0.01,WeatherDisplay:10.37,2013-03-07 07:40:00,
2013-03-07 08:50:00,56.2,54.5,29.79,WSW,250,3.0,7.0,94,0.00,CLR,,0.01,WeatherDisplay:10.37,2013-03-07 07:50:00,
2013-03-07 09:01:00,56.3,54.3,29.79,WSW,242,3.0,8.0,93,0.00,CLR,,0.01,WeatherDisplay:10.37,2013-03-07 08:01:00,
2013-03-07 09:10:00,56.5,54.5,29.80,WSW,239,5.0,9.0,93,0.00,CLR,,0.01,WeatherDisplay:10.37,2013-03-07 08:10:00,
2013-03-07 09:21:00,56.6,54.6,29.80,WSW,247,3.0,7.0,93,0.00,CLR,,0.01,WeatherDisplay:10.37,2013-03-07 08:21:00,
2013-03-07 09:30:00,56.7,54.4,29.80,SW,214,5.0,8.0,92,0.00,CLR,,0.01,WeatherDisplay:10.37,2013-03-07 08:30:00,
2013-03-07 09:41:00,56.8,54.2,29.80,SW,229,2.0,6.0,91,0.00,CLR,,0.01,WeatherDisplay:10.37,2013-03-07 08:41:00,
2013-03-07 09:50:00,56.8,54.2,29.80,SW,231,5.0,6.0,91,0.00,CLR,,0.01,WeatherDisplay:10.37,2013-03-07 08:50:00,
2013-03-07 10:00:00,56.7,54.1,29.80,SW,229,6.0,8.0,91,0.00,CLR,,0.01,WeatherDisplay:10.37,2013-03-07 09:00:00,
2013-03-07 10:11:00,56.6,54.3,29.80,SW,223,5.0,8.0,92,0.00,CLR,,0.01,WeatherDisplay:10.37,2013-03-07 09:11:00,
2013-03-07 10:21:00,56.5,54.5,29.80,SSW,207,5.0,7.0,93,0.00,CLR,,0.01,WeatherDisplay:10.37,2013-03-07 09:21:00,
2013-03-07 10:30:00,56.6,54.6,29.80,SW,215,5.0,8.0,93,0.01,RA,,0.02,WeatherDisplay:10.37,2013-03-07 09:30:00,
2013-03-07 10:40:00,56.5,54.8,29.80,SSW,208,2.0,7.0,94,0.01,RA,,0.02,WeatherDisplay:10.37,2013-03-07 09:40:00,
2013-03-07 10:51:00,56.4,54.7,29.80,SSW,204,3.0,6.0,94,0.01,RA,,0.02,WeatherDisplay:10.37,2013-03-07 09:51:00,
2013-03-07 11:00:00,56.3,54.9,29.81,SSW,213,5.0,7.0,95,0.01,CLR,,0.02,WeatherDisplay:10.37,2013-03-07 10:00:00,
2013-03-07 11:11:00,56.1,54.7,29.80,SSW,211,3.0,6.0,95,0.02,RA,,0.03,WeatherDisplay:10.37,2013-03-07 10:11:00,
2013-03-07 11:21:00,56.1,54.7,29.80,SW,223,3.0,8.0,95,0.02,RA,,0.03,WeatherDisplay:10.37,2013-03-07 10:21:00,
2013-03-07 11:30:00,56.1,54.7,29.80,SW,217,3.0,7.0,95,0.01,RA,,0.03,WeatherDisplay:10.37,2013-03-07 10:30:00,
2013-03-07 11:41:00,56.6,55.2,29.80,South,191,5.0,9.0,95,0.01,CLR,,0.03,WeatherDisplay:10.37,2013-03-07 10:41:00,
2013-03-07 11:51:00,56.3,54.9,29.80,South,182,5.0,9.0,95,0.01,CLR,,0.03,WeatherDisplay:10.37,2013-03-07 10:51:00,
2013-03-07 12:01:00,56.5,55.1,29.80,South,189,2.0,9.0,95,0.01,CLR,,0.03,WeatherDisplay:10.37,2013-03-07 11:01:00,
2013-03-07 12:11:00,56.3,54.9,29.81,South,186,3.0,9.0,95,0.00,CLR,,0.03,WeatherDisplay:10.37,2013-03-07 11:11:00,
2013-03-07 12:20:00,56.2,54.8,29.80,SSW,213,5.0,7.0,95,0.00,CLR,,0.03,WeatherDisplay:10.37,2013-03-07 11:20:00,
2013-03-07 12:30:00,56.2,54.8,29.80,SSW,211,3.0,9.0,95,0.00,CLR,,0.03,WeatherDisplay:10.37,2013-03-07 11:30:00,
2013-03-07 12:40:00,56.3,54.9,29.80,SSW,209,5.0,8.0,95,0.00,CLR,,0.03,WeatherDisplay:10.37,2013-03-07 11:40:00,
2013-03-07 12:50:00,56.2,54.8,29.79,SSW,202,5.0,7.0,95,0.00,CLR,,0.03,WeatherDisplay:10.37,2013-03-07 11:50:00,
2013-03-07 13:00:00,56.3,54.9,29.79,SW,226,5.0,8.0,95,0.00,CLR,,0.03,WeatherDisplay:10.37,2013-03-07 12:00:00,
2013-03-07 13:10:00,56.1,54.7,29.79,SW,223,5.0,8.0,95,0.00,CLR,,0.03,WeatherDisplay:10.37,2013-03-07 12:10:00,
2013-03-07 13:20:00,56.1,54.7,29.79,SW,231,2.0,6.0,95,0.00,CLR,,0.03,WeatherDisplay:10.37,2013-03-07 12:20:00,
2013-03-07 13:31:00,56.1,54.7,29.78,SSW,206,5.0,9.0,95,0.00,CLR,,0.03,WeatherDisplay:10.37,2013-03-07 12:31:00,
2013-03-07 13:45:00,56.0,54.9,29.78,SW,226,6.0,8.0,96,0.00,CLR,,0.03,WeatherDisplay:10.37,2013-03-07 12:45:00,
2013-03-07 13:55:00,55.9,54.8,29.78,SW,214,6.0,10.0,96,0.00,CLR,,0.03,WeatherDisplay:10.37,2013-03-07 12:55:00,
2013-03-07 14:00:00,55.8,54.4,29.78,SSW,206,6.0,12.0,95,0.00,CLR,,0.03,WeatherDisplay:10.37,2013-03-07 13:00:00,
2013-03-07 14:10:00,55.7,54.6,29.78,WSW,237,6.0,12.0,96,0.00,CLR,,0.03,WeatherDisplay:10.37,2013-03-07 13:10:00,
2013-03-07 14:20:00,55.7,54.6,29.77,SW,236,6.0,13.0,96,0.00,CLR,,0.03,WeatherDisplay:10.37,2013-03-07 13:20:00,
2013-03-07 14:30:00,55.7,54.6,29.77,SW,221,7.0,12.0,96,0.05,RA,,0.08,WeatherDisplay:10.37,2013-03-07 13:30:00,
2013-03-07 14:40:00,55.6,54.5,29.77,SW,231,7.0,10.0,96,0.05,RA,,0.08,WeatherDisplay:10.37,2013-03-07 13:40:00,
2013-03-07 14:50:00,55.6,54.5,29.77,SSW,206,5.0,10.0,96,0.06,RA,,0.09,WeatherDisplay:10.37,2013-03-07 13:50:00,
2013-03-07 15:00:00,55.6,54.5,29.78,WSW,241,3.0,8.0,96,0.06,RA,,0.09,WeatherDisplay:10.37,2013-03-07 14:00:00,
2013-03-07 15:10:00,55.6,54.5,29.77,SW,229,5.0,10.0,96,0.06,RA,,0.09,WeatherDisplay:10.37,2013-03-07 14:10:00,
2013-03-07 15:21:00,55.5,54.4,29.77,WSW,243,7.0,12.0,96,0.06,CLR,,0.09,WeatherDisplay:10.37,2013-03-07 14:21:00,
2013-03-07 15:30:00,55.6,54.8,29.77,SW,232,5.0,8.0,97,0.01,CLR,,0.09,WeatherDisplay:10.37,2013-03-07 14:30:00,
2013-03-07 15:40:00,55.6,54.8,29.77,SW,227,5.0,10.0,97,0.01,CLR,,0.09,WeatherDisplay:10.37,2013-03-07 14:40:00,
2013-03-07 15:50:00,55.5,54.7,29.77,West,261,5.0,9.0,97,0.00,CLR,,0.09,WeatherDisplay:10.37,2013-03-07 14:50:00,
2013-03-07 16:00:00,55.4,54.5,29.77,SW,234,9.0,15.0,97,0.00,CLR,,0.09,WeatherDisplay:10.37,2013-03-07 15:00:00,
2013-03-07 16:11:00,55.5,54.4,29.77,SW,236,5.0,12.0,96,0.00,CLR,,0.09,WeatherDisplay:10.37,2013-03-07 15:11:00,
2013-03-07 16:20:00,55.5,54.7,29.77,SW,230,7.0,10.0,97,0.00,CLR,,0.09,WeatherDisplay:10.37,2013-03-07 15:20:00,
2013-03-07 16:31:00,55.5,54.7,29.77,SW,225,6.0,9.0,97,0.00,CLR,,0.09,WeatherDisplay:10.37,2013-03-07 15:31:00,
2013-03-07 16:40:00,55.5,54.6,29.77,SW,226,7.0,10.0,97,0.00,CLR,,0.09,WeatherDisplay:10.37,2013-03-07 15:40:00,
2013-03-07 16:50:00,55.5,54.7,29.77,SW,229,5.0,7.0,97,0.00,CLR,,0.09,WeatherDisplay:10.37,2013-03-07 15:50:00,
2013-03-07 17:00:00,55.6,54.7,29.77,SW,217,5.0,9.0,97,0.00,CLR,,0.09,WeatherDisplay:10.37,2013-03-07 16:00:00,
2013-03-07 17:11:00,55.5,54.7,29.78,SSW,208,6.0,10.0,97,0.00,CLR,,0.09,WeatherDisplay:10.37,2013-03-07 16:11:00,
2013-03-07 17:20:00,55.4,54.3,29.78,SW,225,6.0,13.0,96,0.00,CLR,,0.09,WeatherDisplay:10.37,2013-03-07 16:20:00,
2013-03-07 17:31:00,55.4,54.3,29.79,SW,219,6.0,12.0,96,0.00,CLR,,0.09,WeatherDisplay:10.37,2013-03-07 16:31:00,
2013-03-07 17:40:00,55.5,54.4,29.79,SW,226,6.0,14.0,96,0.00,CLR,,0.09,WeatherDisplay:10.37,2013-03-07 16:40:00,
2013-03-07 17:50:00,55.6,54.5,29.79,SW,221,7.0,13.0,96,0.00,CLR,,0.09,WeatherDisplay:10.37,2013-03-07 16:50:00,
2013-03-07 18:00:00,55.6,54.2,29.79,SSW,210,7.0,12.0,95,0.00,CLR,,0.09,WeatherDisplay:10.37,2013-03-07 17:00:00,
2013-03-07 18:10:00,55.5,54.4,29.80,SW,224,7.0,12.0,96,0.00,CLR,,0.09,WeatherDisplay:10.37,2013-03-07 17:10:00,
2013-03-07 18:20:00,55.4,54.3,29.80,SW,227,7.0,12.0,96,0.00,CLR,,0.09,WeatherDisplay:10.37,2013-03-07 17:20:00,
2013-03-07 18:31:00,55.4,54.3,29.80,SW,232,8.0,13.0,96,0.00,CLR,,0.09,WeatherDisplay:10.37,2013-03-07 17:31:00,
2013-03-07 18:40:00,55.4,54.0,29.80,SW,226,6.0,12.0,95,0.00,CLR,,0.09,WeatherDisplay:10.37,2013-03-07 17:40:00,
2013-03-07 18:50:00,55.5,54.1,29.81,SW,225,6.0,9.0,95,0.00,CLR,,0.09,WeatherDisplay:10.37,2013-03-07 17:50:00,
2013-03-07 19:00:00,55.5,54.0,29.81,SW,222,5.0,12.0,95,0.00,CLR,,0.09,WeatherDisplay:10.37,2013-03-07 18:00:00,
2013-03-07 19:10:00,55.5,54.1,29.81,SW,222,5.0,7.0,95,0.00,CLR,,0.09,WeatherDisplay:10.37,2013-03-07 18:10:00,
2013-03-07 19:21:00,55.5,54.1,29.82,SSW,213,6.0,9.0,95,0.00,CLR,,0.09,WeatherDisplay:10.37,2013-03-07 18:21:00,
2013-03-07 19:30:00,55.5,53.8,29.82,SW,218,5.0,9.0,94,0.00,CLR,,0.09,WeatherDisplay:10.37,2013-03-07 18:30:00,
2013-03-07 19:40:00,55.5,53.8,29.82,SW,218,6.0,8.0,94,0.00,CLR,,0.09,WeatherDisplay:10.37,2013-03-07 18:40:00,
2013-03-07 19:51:00,55.6,54.2,29.82,SW,214,3.0,7.0,95,0.00,CLR,,0.09,WeatherDisplay:10.37,2013-03-07 18:51:00,
2013-03-07 20:00:00,55.6,54.2,29.82,SW,221,5.0,8.0,95,0.00,CLR,,0.09,WeatherDisplay:10.37,2013-03-07 19:00:00,
2013-03-07 20:10:00,55.5,54.1,29.83,SW,214,5.0,9.0,95,0.00,CLR,,0.09,WeatherDisplay:10.37,2013-03-07 19:10:00,
2013-03-07 20:20:00,55.6,54.2,29.83,SW,227,3.0,6.0,95,0.00,CLR,,0.09,WeatherDisplay:10.37,2013-03-07 19:20:00,
2013-03-07 20:30:00,55.5,54.4,29.83,WSW,239,5.0,8.0,96,0.00,CLR,,0.09,WeatherDisplay:10.37,2013-03-07 19:30:00,
2013-03-07 20:40:00,55.5,54.4,29.83,SW,229,6.0,9.0,96,0.00,CLR,,0.09,WeatherDisplay:10.37,2013-03-07 19:40:00,
2013-03-07 20:50:00,55.4,54.3,29.83,WSW,240,6.0,9.0,96,0.00,CLR,,0.09,WeatherDisplay:10.37,2013-03-07 19:50:00,
2013-03-07 21:00:00,55.5,54.4,29.83,SW,219,5.0,9.0,96,0.00,CLR,,0.09,WeatherDisplay:10.37,2013-03-07 20:00:00,
2013-03-07 21:10:00,55.5,54.4,29.83,SW,227,5.0,8.0,96,0.00,CLR,,0.09,WeatherDisplay:10.37,2013-03-07 20:10:00,
2013-03-07 21:20:00,55.4,55.1,29.83,SSW,207,6.0,10.0,99,0.00,CLR,,0.09,WeatherDisplay:10.37,2013-03-07 20:20:00,
2013-03-07 21:30:00,55.4,54.3,29.83,SW,228,5.0,8.0,96,0.00,CLR,,0.09,WeatherDisplay:10.37,2013-03-07 20:30:00,
2013-03-07 21:40:00,55.4,54.3,29.83,SW,218,6.0,9.0,96,0.00,CLR,,0.09,WeatherDisplay:10.37,2013-03-07 20:40:00,
2013-03-07 21:50:00,55.3,54.5,29.83,SW,236,5.0,7.0,97,0.00,CLR,,0.09,WeatherDisplay:10.37,2013-03-07 20:50:00,
2013-03-07 22:05:00,55.2,54.4,29.83,SW,220,7.0,10.0,97,0.00,CLR,,0.09,WeatherDisplay:10.37,2013-03-07 21:05:00,
2013-03-07 22:10:00,55.2,54.4,29.83,SSW,213,6.0,9.0,97,0.00,CLR,,0.09,WeatherDisplay:10.37,2013-03-07 21:10:00,
2013-03-07 22:20:00,55.1,54.3,29.83,SW,226,5.0,9.0,97,0.00,CLR,,0.09,WeatherDisplay:10.37,2013-03-07 21:20:00,
2013-03-07 22:30:00,55.1,54.3,29.83,SW,224,5.0,8.0,97,0.00,CLR,,0.09,WeatherDisplay:10.37,2013-03-07 21:30:00,
2013-03-07 22:45:00,55.0,54.2,29.83,WSW,237,5.0,7.0,97,0.00,CLR,,0.09,WeatherDisplay:10.37,2013-03-07 21:45:00,
2013-03-07 22:50:00,55.0,54.2,29.83,SW,236,3.0,7.0,97,0.00,CLR,,0.09,WeatherDisplay:10.37,2013-03-07 21:50:00,
2013-03-07 23:00:00,55.1,54.3,29.83,SW,224,3.0,7.0,97,0.00,CLR,,0.09,WeatherDisplay:10.37,2013-03-07 22:00:00,
2013-03-07 23:10:00,55.0,54.2,29.83,SW,231,5.0,7.0,97,0.00,CLR,,0.09,WeatherDisplay:10.37,2013-03-07 22:10:00,
2013-03-07 23:20:00,55.0,54.2,29.83,SSW,204,1.0,7.0,97,0.00,CLR,,0.09,WeatherDisplay:10.37,2013-03-07 22:20:00,
2013-03-07 23:30:00,55.1,54.2,29.83,SW,223,3.0,7.0,97,0.00,CLR,,0.09,WeatherDisplay:10.37,2013-03-07 22:30:00,
2013-03-07 23:40:00,55.0,54.2,29.83,SW,228,1.0,6.0,97,0.00,CLR,,0.09,WeatherDisplay:10.37,2013-03-07 22:40:00,
2013-03-07 23:50:00,55.0,54.2,29.83,SW,224,7.0,9.0,97,0.00,CLR,,0.09,WeatherDisplay:10.37,2013-03-07 22:50:00,